Time,TemperatureF,DewpointF,PressureIn,WindDirection,WindDirectionDegrees,WindSpeedMPH,WindSpeedGustMPH,Humidity,HourlyPrecipIn,Conditions,Clouds,dailyrainin,SoftwareType,DateUTC
2013-09-21 00:01:00,48.4,46.8,29.96,NE,34,0.0,0.0,94,0.00,,SKC,0.00,WeatherDisplay:10.37,2013-09-21 05:01:00,
2013-09-21 00:06:00,48.2,46.6,29.96,NE,34,0.0,0.0,94,0.00,,SKC,0.00,WeatherDisplay:10.37,2013-09-21 05:06:00,
2013-09-21 00:11:00,47.7,45.8,29.96,NE,34,0.0,0.0,93,0.00,,SKC,0.00,WeatherDisplay:10.37,2013-09-21 05:11:00,
2013-09-21 00:16:00,47.3,45.4,29.96,NE,34,0.0,0.0,93,0.00,,SKC,0.00,WeatherDisplay:10.37,2013-09-21 05:16:00,
2013-09-21 00:21:00,47.3,45.9,29.96,NE,34,0.0,0.0,95,0.00,,SKC,0.00,WeatherDisplay:10.37,2013-09-21 05:21:00,
2013-09-21 00:26:00,47.3,45.9,29.96,NE,34,0.0,0.0,95,0.00,,SKC,0.00,WeatherDisplay:10.37,2013-09-21 05:26:00,
2013-09-21 00:31:00,47.3,45.9,29.96,NE,34,0.0,0.0,95,0.00,,SKC,0.00,WeatherDisplay:10.37,2013-09-21 05:31:00,
2013-09-21 00:36:00,47.3,45.9,29.96,NE,34,0.0,0.0,95,0.00,,SKC,0.00,WeatherDisplay:10.37,2013-09-21 05:36:00,
2013-09-21 00:41:00,47.3,46.2,29.96,NE,34,0.0,0.0,96,0.00,,SKC,0.00,WeatherDisplay:10.37,2013-09-21 05:41:00,
2013-09-21 00:46:00,47.2,45.8,29.96,NE,34,0.0,0.0,95,0.00,,SKC,0.00,WeatherDisplay:10.37,2013-09-21 05:46:00,
2013-09-21 00:51:00,47.2,46.1,29.96,NE,34,0.0,0.0,96,0.00,,SKC,0.00,WeatherDisplay:10.37,2013-09-21 05:51:00,
2013-09-21 00:56:00,47.2,46.1,29.96,NE,34,0.0,0.0,96,0.00,,SKC,0.00,WeatherDisplay:10.37,2013-09-21 05:56:00,
2013-09-21 01:01:00,47.3,46.2,29.96,NE,34,0.0,0.0,96,0.00,,SKC,0.00,WeatherDisplay:10.37,2013-09-21 06:01:00,
2013-09-21 01:06:00,47.1,46.0,29.96,NE,34,0.0,0.0,96,0.00,,SKC,0.00,WeatherDisplay:10.37,2013-09-21 06:06:00,
2013-09-21 01:11:00,46.7,45.3,29.96,NE,34,0.0,0.0,95,0.00,,SKC,0.00,WeatherDisplay:10.37,2013-09-21 06:11:00,
2013-09-21 01:16:00,46.3,44.9,29.96,NE,34,0.0,0.0,95,0.00,,SKC,0.00,WeatherDisplay:10.37,2013-09-21 06:16:00,
2013-09-21 01:21:00,46.0,44.6,29.96,NE,34,0.0,0.0,95,0.00,,SKC,0.00,WeatherDisplay:10.37,2013-09-21 06:21:00,
2013-09-21 01:26:00,45.9,44.8,29.96,NE,34,0.0,0.0,96,0.00,,SKC,0.00,WeatherDisplay:10.37,2013-09-21 06:26:00,
2013-09-21 01:31:00,45.8,44.7,29.96,NE,34,0.0,0.0,96,0.00,,SKC,0.00,WeatherDisplay:10.37,2013-09-21 06:31:00,
2013-09-21 01:36:00,46.1,45.3,29.96,NE,34,0.0,0.0,97,0.00,,SKC,0.00,WeatherDisplay:10.37,2013-09-21 06:36:00,
2013-09-21 01:41:00,46.4,45.6,29.96,NE,34,0.0,0.0,97,0.00,,SKC,0.00,WeatherDisplay:10.37,2013-09-21 06:41:00,
2013-09-21 01:46:00,46.8,46.0,29.96,NE,34,0.0,0.0,97,0.00,,SKC,0.00,WeatherDisplay:10.37,2013-09-21 06:46:00,
2013-09-21 01:51:00,46.9,46.1,29.96,NE,34,0.0,0.0,97,0.00,,SKC,0.00,WeatherDisplay:10.37,2013-09-21 06:51:00,
2013-09-21 01:56:00,46.8,45.7,29.96,NNE,33,0.0,0.0,96,0.00,,SKC,0.00,WeatherDisplay:10.37,2013-09-21 06:56:00,
2013-09-21 02:01:00,46.9,45.8,29.97,NE,34,0.0,0.0,96,0.00,,SKC,0.00,WeatherDisplay:10.37,2013-09-21 07:01:00,
2013-09-21 02:06:00,47.0,45.9,29.96,NNE,33,0.0,0.0,96,0.00,,SKC,0.00,WeatherDisplay:10.37,2013-09-21 07:06:00,
2013-09-21 02:11:00,46.7,45.3,29.97,NE,34,0.0,0.0,95,0.00,,SKC,0.00,WeatherDisplay:10.37,2013-09-21 07:11:00,
2013-09-21 02:16:00,46.9,45.8,29.97,NE,34,0.0,0.0,96,0.00,,SKC,0.00,WeatherDisplay:10.37,2013-09-21 07:16:00,
2013-09-21 02:22:00,47.1,46.0,29.97,NE,34,0.0,0.0,96,0.00,,SKC,0.00,WeatherDisplay:10.37,2013-09-21 07:22:00,
2013-09-21 02:27:00,47.2,46.1,29.97,NNE,33,0.0,0.0,96,0.00,,SKC,0.00,WeatherDisplay:10.37,2013-09-21 07:27:00,
2013-09-21 02:32:00,47.2,45.8,29.97,NE,34,0.0,0.0,95,0.00,,SKC,0.00,WeatherDisplay:10.37,2013-09-21 07:32:00,
2013-09-21 02:37:00,47.2,45.8,29.97,NNE,33,0.0,0.0,95,0.00,,SKC,0.00,WeatherDisplay:10.37,2013-09-21 07:37:00,
2013-09-21 02:42:00,47.4,46.0,29.98,NNE,33,0.0,0.0,95,0.00,,SKC,0.00,WeatherDisplay:10.37,2013-09-21 07:42:00,
2013-09-21 02:47:00,47.7,46.1,29.98,NE,34,0.0,0.0,94,0.00,,SKC,0.00,WeatherDisplay:10.37,2013-09-21 07:47:00,
2013-09-21 02:52:00,47.8,46.2,29.97,NNE,33,0.0,0.0,94,0.00,,SKC,0.00,WeatherDisplay:10.37,2013-09-21 07:52:00,
2013-09-21 02:57:00,47.7,46.1,29.97,NE,34,0.0,0.0,94,0.00,,SKC,0.00,WeatherDisplay:10.37,2013-09-21 07:57:00,
2013-09-21 03:02:00,47.6,45.7,29.97,NE,34,0.0,0.0,93,0.00,,SKC,0.00,WeatherDisplay:10.37,2013-09-21 08:02:00,
2013-09-21 03:07:00,47.5,45.6,29.97,NE,38,0.0,0.0,93,0.00,,SKC,0.00,WeatherDisplay:10.37,2013-09-21 08:07:00,
2013-09-21 03:12:00,47.4,45.5,29.97,NE,41,1.2,1.2,93,0.00,,SKC,0.00,WeatherDisplay:10.37,2013-09-21 08:12:00,
2013-09-21 03:17:00,47.3,45.4,29.97,NE,41,0.0,0.0,93,0.00,,SKC,0.00,WeatherDisplay:10.37,2013-09-21 08:17:00,
2013-09-21 03:22:00,47.3,45.4,29.97,NE,41,0.0,0.0,93,0.00,,SKC,0.00,WeatherDisplay:10.37,2013-09-21 08:22:00,
2013-09-21 03:27:00,47.2,45.3,29.97,NE,41,0.0,0.0,93,0.00,,SKC,0.00,WeatherDisplay:10.37,2013-09-21 08:27:00,
2013-09-21 03:32:00,47.3,45.4,29.97,NE,41,0.0,0.0,93,0.00,,SKC,0.00,WeatherDisplay:10.37,2013-09-21 08:32:00,
2013-09-21 03:37:00,47.5,45.6,29.96,NE,41,0.0,0.0,93,0.00,,SKC,0.00,WeatherDisplay:10.37,2013-09-21 08:37:00,
2013-09-21 03:42:00,47.6,45.4,29.96,NE,41,0.0,0.0,92,0.00,,SKC,0.00,WeatherDisplay:10.37,2013-09-21 08:42:00,
2013-09-21 03:47:00,47.6,45.4,29.96,NE,41,0.0,0.0,92,0.00,,SKC,0.00,WeatherDisplay:10.37,2013-09-21 08:47:00,
2013-09-21 03:52:00,47.7,45.2,29.96,NE,41,0.0,0.0,91,0.00,,SKC,0.00,WeatherDisplay:10.37,2013-09-21 08:52:00,
2013-09-21 03:57:00,47.4,44.9,29.96,NE,41,0.0,0.0,91,0.00,,SKC,0.00,WeatherDisplay:10.37,2013-09-21 08:57:00,
2013-09-21 04:02:00,46.9,44.7,29.96,NE,41,0.0,0.0,92,0.00,,SKC,0.00,WeatherDisplay:10.37,2013-09-21 09:02:00,
2013-09-21 04:07:00,46.7,44.5,29.96,NE,41,0.0,0.0,92,0.00,,SKC,0.00,WeatherDisplay:10.37,2013-09-21 09:07:00,
2013-09-21 04:12:00,46.3,44.1,29.96,ENE,58,0.0,0.0,92,0.00,,SKC,0.00,WeatherDisplay:10.37,2013-09-21 09:12:00,
2013-09-21 04:17:00,46.1,44.2,29.96,ENE,58,0.0,0.0,93,0.00,,SKC,0.00,WeatherDisplay:10.37,2013-09-21 09:17:00,
2013-09-21 04:22:00,45.8,44.2,29.96,ENE,58,0.0,0.0,94,0.00,,SKC,0.00,WeatherDisplay:10.37,2013-09-21 09:22:00,
2013-09-21 04:27:00,45.5,43.9,29.96,ENE,58,0.0,0.0,94,0.00,,SKC,0.00,WeatherDisplay:10.37,2013-09-21 09:27:00,
2013-09-21 04:32:00,45.3,43.7,29.97,ENE,58,0.0,0.0,94,0.00,,SKC,0.00,WeatherDisplay:10.37,2013-09-21 09:32:00,
2013-09-21 04:37:00,45.5,44.2,29.96,ENE,57,0.0,0.0,95,0.00,,SKC,0.00,WeatherDisplay:10.37,2013-09-21 09:37:00,
2013-09-21 04:42:00,45.3,44.0,29.96,ENE,57,0.0,0.0,95,0.00,,SKC,0.00,WeatherDisplay:10.37,2013-09-21 09:42:00,
2013-09-21 04:47:00,45.1,43.5,29.96,ENE,57,0.0,0.0,94,0.00,,SKC,0.00,WeatherDisplay:10.37,2013-09-21 09:47:00,
2013-09-21 04:52:00,44.8,43.2,29.96,ENE,57,0.0,0.0,94,0.00,,SKC,0.00,WeatherDisplay:10.37,2013-09-21 09:52:00,
2013-09-21 04:57:00,44.6,43.3,29.96,ENE,57,0.0,0.0,95,0.00,,SKC,0.00,WeatherDisplay:10.37,2013-09-21 09:57:00,
2013-09-21 05:02:00,44.5,43.2,29.97,ENE,57,0.0,0.0,95,0.00,,SKC,0.00,WeatherDisplay:10.37,2013-09-21 10:02:00,
2013-09-21 05:07:00,44.4,43.1,29.97,ENE,57,0.0,0.0,95,0.00,,SKC,0.00,WeatherDisplay:10.37,2013-09-21 10:07:00,
2013-09-21 05:12:00,44.5,43.4,29.97,ENE,57,0.0,0.0,96,0.00,,SKC,0.00,WeatherDisplay:10.37,2013-09-21 10:12:00,
2013-09-21 05:17:00,44.5,43.4,29.97,ENE,57,0.0,0.0,96,0.00,,SKC,0.00,WeatherDisplay:10.37,2013-09-21 10:17:00,
2013-09-21 05:22:00,44.3,43.2,29.97,ENE,57,0.0,0.0,96,0.00,,SKC,0.00,WeatherDisplay:10.37,2013-09-21 10:22:00,
2013-09-21 05:27:00,44.3,43.2,29.96,ENE,57,0.0,0.0,96,0.00,,SKC,0.00,WeatherDisplay:10.37,2013-09-21 10:27:00,
2013-09-21 05:32:00,44.3,43.2,29.96,ENE,57,0.0,0.0,96,0.00,,SKC,0.00,WeatherDisplay:10.37,2013-09-21 10:32:00,
2013-09-21 05:37:00,44.2,43.1,29.96,ENE,57,0.0,0.0,96,0.00,,SKC,0.00,WeatherDisplay:10.37,2013-09-21 10:37:00,
2013-09-21 05:42:00,44.1,43.0,29.96,ENE,57,0.0,0.0,96,0.00,,SKC,0.00,WeatherDisplay:10.37,2013-09-21 10:42:00,
2013-09-21 05:47:00,44.1,43.0,29.96,ENE,57,0.0,0.0,96,0.00,,SKC,0.00,WeatherDisplay:10.37,2013-09-21 10:47:00,
2013-09-21 05:52:00,44.4,43.6,29.96,ENE,60,0.0,0.0,97,0.00,,SKC,0.00,WeatherDisplay:10.37,2013-09-21 10:52:00,
2013-09-21 05:57:00,44.8,44.0,29.96,ENE,77,0.0,0.0,97,0.00,,SKC,0.00,WeatherDisplay:10.37,2013-09-21 10:57:00,
2013-09-21 06:03:00,45.0,43.9,29.96,ENE,77,0.0,0.0,96,0.00,,SKC,0.00,WeatherDisplay:10.37,2013-09-21 11:03:00,
2013-09-21 06:08:00,45.3,44.0,29.97,ENE,77,0.0,0.0,95,0.00,,SKC,0.00,WeatherDisplay:10.37,2013-09-21 11:08:00,
2013-09-21 06:13:00,45.1,43.8,29.97,ENE,77,0.0,0.0,95,0.00,,SKC,0.00,WeatherDisplay:10.37,2013-09-21 11:13:00,
2013-09-21 06:18:00,44.9,43.3,29.97,ENE,76,0.0,0.0,94,0.00,,SKC,0.00,WeatherDisplay:10.37,2013-09-21 11:18:00,
2013-09-21 06:23:00,44.6,43.3,29.97,ENE,76,0.0,0.0,95,0.00,,SKC,0.00,WeatherDisplay:10.37,2013-09-21 11:23:00,
2013-09-21 06:28:00,44.3,43.0,29.97,ENE,76,0.0,0.0,95,0.00,,SKC,0.00,WeatherDisplay:10.37,2013-09-21 11:28:00,
2013-09-21 06:33:00,44.1,42.8,29.97,ENE,76,0.0,0.0,95,0.00,,SKC,0.00,WeatherDisplay:10.37,2013-09-21 11:33:00,
2013-09-21 06:38:00,44.1,43.0,29.97,ENE,76,0.0,0.0,96,0.00,,SKC,0.00,WeatherDisplay:10.37,2013-09-21 11:38:00,
2013-09-21 06:43:00,44.0,42.9,29.97,ENE,77,0.0,0.0,96,0.00,,SKC,0.00,WeatherDisplay:10.37,2013-09-21 11:43:00,
2013-09-21 06:48:00,44.0,42.9,29.97,ENE,77,0.0,0.0,96,0.00,,SKC,0.00,WeatherDisplay:10.37,2013-09-21 11:48:00,
2013-09-21 06:53:00,43.9,42.8,29.97,ENE,76,0.0,0.0,96,0.00,,SKC,0.00,WeatherDisplay:10.37,2013-09-21 11:53:00,
2013-09-21 06:58:00,43.6,42.5,29.98,ENE,77,0.0,0.0,96,0.00,,SKC,0.00,WeatherDisplay:10.37,2013-09-21 11:58:00,
2013-09-21 07:03:00,43.7,42.6,29.98,ENE,77,0.0,0.0,96,0.00,,SKC,0.00,WeatherDisplay:10.37,2013-09-21 12:03:00,
2013-09-21 07:08:00,43.7,42.6,29.98,ENE,76,0.0,0.0,96,0.00,,SKC,0.00,WeatherDisplay:10.37,2013-09-21 12:08:00,
2013-09-21 07:13:00,43.6,42.5,29.98,ENE,76,0.0,0.0,96,0.00,,SKC,0.00,WeatherDisplay:10.37,2013-09-21 12:13:00,
2013-09-21 07:18:00,43.7,42.9,29.98,ENE,76,0.0,0.0,97,0.00,,SKC,0.00,WeatherDisplay:10.37,2013-09-21 12:18:00,
2013-09-21 07:23:00,44.0,43.2,29.98,ENE,77,0.0,0.0,97,0.00,,SKC,0.00,WeatherDisplay:10.37,2013-09-21 12:23:00,
2013-09-21 07:28:00,44.1,43.3,29.98,ENE,77,0.0,0.0,97,0.00,,SKC,0.00,WeatherDisplay:10.37,2013-09-21 12:28:00,
2013-09-21 07:33:00,44.5,43.7,29.99,ENE,77,0.0,0.0,97,0.00,,SKC,0.00,WeatherDisplay:10.37,2013-09-21 12:33:00,
2013-09-21 07:38:00,45.3,44.5,29.99,ENE,77,0.0,0.0,97,0.00,,SKC,0.00,WeatherDisplay:10.37,2013-09-21 12:38:00,
2013-09-21 07:43:00,45.9,44.5,29.99,ENE,77,0.0,0.0,95,0.00,,SKC,0.00,WeatherDisplay:10.37,2013-09-21 12:43:00,
2013-09-21 07:48:00,46.6,45.0,29.99,ENE,77,0.0,0.0,94,0.00,,SKC,0.00,WeatherDisplay:10.37,2013-09-21 12:48:00,
2013-09-21 07:53:00,47.2,45.6,29.99,ENE,77,0.0,0.0,94,0.00,,SKC,0.00,WeatherDisplay:10.37,2013-09-21 12:53:00,
2013-09-21 07:58:00,47.9,46.0,29.99,ENE,76,0.0,0.0,93,0.00,,SKC,0.00,WeatherDisplay:10.37,2013-09-21 12:58:00,
2013-09-21 08:03:00,48.8,46.6,29.99,ENE,77,0.0,0.0,92,0.00,,SKC,0.00,WeatherDisplay:10.37,2013-09-21 13:03:00,
2013-09-21 08:08:00,49.5,47.0,29.99,ENE,77,0.0,0.0,91,0.00,,SKC,0.00,WeatherDisplay:10.37,2013-09-21 13:08:00,
2013-09-21 08:13:00,50.3,47.5,29.99,ENE,77,0.0,0.0,90,0.00,,SKC,0.00,WeatherDisplay:10.37,2013-09-21 13:13:00,
2013-09-21 08:18:00,50.7,47.6,29.99,ESE,103,0.0,0.0,89,0.00,,SKC,0.00,WeatherDisplay:10.37,2013-09-21 13:18:00,
2013-09-21 08:23:00,50.8,48.0,29.99,SE,124,1.2,1.2,90,0.00,,SKC,0.00,WeatherDisplay:10.37,2013-09-21 13:23:00,
2013-09-21 08:29:00,51.3,48.5,29.99,ESE,123,2.1,2.1,90,0.00,,SKC,0.00,WeatherDisplay:10.37,2013-09-21 13:29:00,
2013-09-21 08:34:00,51.8,49.0,29.99,SE,138,1.2,1.2,90,0.00,,SKC,0.00,WeatherDisplay:10.37,2013-09-21 13:34:00,
2013-09-21 08:39:00,52.6,49.4,29.99,SE,130,2.1,2.1,89,0.00,,SKC,0.00,WeatherDisplay:10.37,2013-09-21 13:39:00,
2013-09-21 08:44:00,53.7,49.9,29.99,South,170,1.2,1.2,87,0.00,,SKC,0.00,WeatherDisplay:10.37,2013-09-21 13:44:00,
2013-09-21 08:49:00,54.2,49.8,29.99,SW,214,1.2,1.2,85,0.00,,SKC,0.00,WeatherDisplay:10.37,2013-09-21 13:49:00,
2013-09-21 08:54:00,54.2,49.1,30.00,South,173,3.2,3.2,83,0.00,,SKC,0.00,WeatherDisplay:10.37,2013-09-21 13:54:00,
2013-09-21 08:59:00,54.3,49.2,30.00,South,179,3.5,3.5,83,0.00,,SKC,0.00,WeatherDisplay:10.37,2013-09-21 13:59:00,
2013-09-21 09:04:00,54.6,49.2,30.00,SW,224,3.5,3.5,82,0.00,,SKC,0.00,WeatherDisplay:10.37,2013-09-21 14:04:00,
2013-09-21 09:09:00,54.8,49.1,30.00,SSE,153,3.5,3.5,81,0.00,,SKC,0.00,WeatherDisplay:10.37,2013-09-21 14:09:00,
2013-09-21 09:14:00,55.3,49.9,30.00,SSE,150,3.2,3.2,82,0.00,,SKC,0.00,WeatherDisplay:10.37,2013-09-21 14:14:00,
2013-09-21 09:19:00,55.8,50.1,30.00,SSE,152,5.8,5.8,81,0.00,,SKC,0.00,WeatherDisplay:10.37,2013-09-21 14:19:00,
2013-09-21 09:24:00,56.4,50.3,30.00,SE,136,4.6,4.6,80,0.00,,SKC,0.00,WeatherDisplay:10.37,2013-09-21 14:24:00,
2013-09-21 09:29:00,56.8,50.0,30.00,SSE,153,4.6,4.6,78,0.00,,SKC,0.00,WeatherDisplay:10.37,2013-09-21 14:29:00,
2013-09-21 09:34:00,57.4,50.6,30.00,South,173,3.5,3.5,78,0.00,,SKC,0.00,WeatherDisplay:10.37,2013-09-21 14:34:00,
2013-09-21 09:39:00,58.2,51.4,29.99,SE,143,3.5,3.5,78,0.00,,SKC,0.00,WeatherDisplay:10.37,2013-09-21 14:39:00,
2013-09-21 09:44:00,58.8,50.5,29.99,SSE,160,6.9,6.9,74,0.00,,SKC,0.00,WeatherDisplay:10.37,2013-09-21 14:44:00,
2013-09-21 09:49:00,59.2,50.5,29.99,SE,143,6.9,6.9,73,0.00,,SKC,0.00,WeatherDisplay:10.37,2013-09-21 14:49:00,
2013-09-21 09:54:00,59.6,50.6,29.99,SE,139,6.9,6.9,72,0.00,,SKC,0.00,WeatherDisplay:10.37,2013-09-21 14:54:00,
2013-09-21 09:59:00,60.3,50.9,30.00,SSE,150,5.8,5.8,71,0.00,,SKC,0.00,WeatherDisplay:10.37,2013-09-21 14:59:00,
2013-09-21 10:04:00,61.0,51.1,30.00,South,169,6.9,6.9,70,0.00,,SKC,0.00,WeatherDisplay:10.37,2013-09-21 15:04:00,
2013-09-21 10:09:00,61.6,50.1,29.99,SSE,163,5.8,5.8,66,0.00,,SKC,0.00,WeatherDisplay:10.37,2013-09-21 15:09:00,
2013-09-21 10:14:00,62.1,51.0,29.99,SE,136,3.5,3.5,67,0.00,,SKC,0.00,WeatherDisplay:10.37,2013-09-21 15:14:00,
2013-09-21 10:19:00,62.5,51.0,29.99,South,172,6.4,6.4,66,0.00,,SKC,0.00,WeatherDisplay:10.37,2013-09-21 15:19:00,
2013-09-21 10:24:00,63.0,51.0,29.99,South,169,5.8,5.8,65,0.00,,SKC,0.00,WeatherDisplay:10.37,2013-09-21 15:24:00,
2013-09-21 10:29:00,63.7,50.0,29.99,South,176,8.5,8.5,61,0.00,,SKC,0.00,WeatherDisplay:10.37,2013-09-21 15:29:00,
2013-09-21 10:34:00,63.9,51.1,29.99,SSW,195,7.4,7.4,63,0.00,,SKC,0.00,WeatherDisplay:10.37,2013-09-21 15:34:00,
2013-09-21 10:39:00,64.4,50.2,29.98,SSE,152,7.4,7.4,60,0.00,,SKC,0.00,WeatherDisplay:10.37,2013-09-21 15:39:00,
2013-09-21 10:44:00,64.7,50.5,29.98,SE,131,5.8,5.8,60,0.00,,SKC,0.00,WeatherDisplay:10.37,2013-09-21 15:44:00,
2013-09-21 10:49:00,64.8,50.1,29.98,SE,135,7.4,7.4,59,0.00,,SKC,0.00,WeatherDisplay:10.37,2013-09-21 15:49:00,
2013-09-21 10:54:00,65.2,50.0,29.98,ESE,115,6.9,6.9,58,0.00,,SKC,0.00,WeatherDisplay:10.37,2013-09-21 15:54:00,
2013-09-21 10:59:00,65.8,50.1,29.98,ESE,122,6.9,6.9,57,0.00,,SKC,0.00,WeatherDisplay:10.37,2013-09-21 15:59:00,
2013-09-21 11:04:00,66.2,49.6,29.98,SSW,196,7.4,7.4,55,0.00,,SKC,0.00,WeatherDisplay:10.37,2013-09-21 16:04:00,
2013-09-21 11:09:00,66.3,48.7,29.98,WSW,240,10.6,10.6,53,0.00,,SKC,0.00,WeatherDisplay:10.37,2013-09-21 16:09:00,
2013-09-21 11:14:00,66.8,49.6,29.98,SSE,148,8.5,8.5,54,0.00,,SKC,0.00,WeatherDisplay:10.37,2013-09-21 16:14:00,
2013-09-21 11:19:00,67.0,48.8,29.98,SSE,166,5.8,5.8,52,0.00,,SKC,0.00,WeatherDisplay:10.37,2013-09-21 16:19:00,
2013-09-21 11:24:00,67.5,48.7,29.98,SSE,164,8.5,8.5,51,0.00,,SKC,0.00,WeatherDisplay:10.37,2013-09-21 16:24:00,
2013-09-21 11:29:00,67.6,48.8,29.97,East,97,11.7,11.7,51,0.00,,SKC,0.00,WeatherDisplay:10.37,2013-09-21 16:29:00,
2013-09-21 11:34:00,67.9,48.6,29.97,SE,139,9.5,9.5,50,0.00,,SKC,0.00,WeatherDisplay:10.37,2013-09-21 16:34:00,
2013-09-21 11:39:00,68.0,48.7,29.97,SE,142,10.6,10.6,50,0.00,,SKC,0.00,WeatherDisplay:10.37,2013-09-21 16:39:00,
2013-09-21 11:44:00,68.3,48.9,29.97,SE,146,6.9,6.9,50,0.00,,SKC,0.00,WeatherDisplay:10.37,2013-09-21 16:44:00,
2013-09-21 11:49:00,68.7,48.8,29.97,SE,136,10.4,10.4,49,0.00,,SKC,0.00,WeatherDisplay:10.37,2013-09-21 16:49:00,
2013-09-21 11:54:00,69.0,49.6,29.97,SE,145,9.5,9.5,50,0.00,,SKC,0.00,WeatherDisplay:10.37,2013-09-21 16:54:00,
2013-09-21 11:59:00,69.4,49.4,29.97,SE,126,6.9,6.9,49,0.00,,SKC,0.00,WeatherDisplay:10.37,2013-09-21 16:59:00,
2013-09-21 12:04:00,69.2,48.7,29.96,SSE,152,8.5,8.5,48,0.00,,SKC,0.00,WeatherDisplay:10.37,2013-09-21 17:04:00,
2013-09-21 12:10:00,69.6,49.0,29.96,South,171,6.9,6.9,48,0.00,,SKC,0.00,WeatherDisplay:10.37,2013-09-21 17:10:00,
2013-09-21 12:15:00,69.8,48.7,29.96,SW,223,8.5,8.5,47,0.00,,SKC,0.00,WeatherDisplay:10.37,2013-09-21 17:15:00,
2013-09-21 12:20:00,70.1,50.0,29.96,SE,129,10.6,10.6,49,0.00,,SKC,0.00,WeatherDisplay:10.37,2013-09-21 17:20:00,
2013-09-21 12:25:00,70.4,48.6,29.96,SSE,150,10.6,10.6,46,0.00,,SKC,0.00,WeatherDisplay:10.37,2013-09-21 17:25:00,
2013-09-21 12:30:00,70.5,49.3,29.95,SE,136,9.5,9.5,47,0.00,,SKC,0.00,WeatherDisplay:10.37,2013-09-21 17:30:00,
2013-09-21 12:35:00,70.8,50.1,29.95,SSW,200,7.4,7.4,48,0.00,,SKC,0.00,WeatherDisplay:10.37,2013-09-21 17:35:00,
2013-09-21 12:40:00,71.1,49.8,29.95,ESE,117,6.9,6.9,47,0.00,,SKC,0.00,WeatherDisplay:10.37,2013-09-21 17:40:00,
2013-09-21 12:45:00,71.1,48.1,29.94,South,170,8.1,8.1,44,0.00,,SKC,0.00,WeatherDisplay:10.37,2013-09-21 17:45:00,
2013-09-21 12:50:00,71.2,48.2,29.94,SSE,148,7.4,7.4,44,0.00,,SKC,0.00,WeatherDisplay:10.37,2013-09-21 17:50:00,
2013-09-21 12:55:00,71.4,48.9,29.94,East,87,5.3,5.3,45,0.00,,SKC,0.00,WeatherDisplay:10.37,2013-09-21 17:55:00,
2013-09-21 13:00:00,71.9,48.8,29.94,SSW,203,6.9,6.9,44,0.00,,SKC,0.00,WeatherDisplay:10.37,2013-09-21 18:00:00,
2013-09-21 13:05:00,72.0,47.6,29.94,SE,126,7.4,7.4,42,0.00,,SKC,0.00,WeatherDisplay:10.37,2013-09-21 18:05:00,
2013-09-21 13:10:00,72.2,49.7,29.94,WSW,238,8.1,8.1,45,0.00,,SKC,0.00,WeatherDisplay:10.37,2013-09-21 18:10:00,
2013-09-21 13:15:00,72.6,49.4,29.94,SSE,154,10.6,10.6,44,0.00,,SKC,0.00,WeatherDisplay:10.37,2013-09-21 18:15:00,
2013-09-21 13:20:00,72.6,48.8,29.93,South,169,5.8,5.8,43,0.00,,SKC,0.00,WeatherDisplay:10.37,2013-09-21 18:20:00,
2013-09-21 13:25:00,72.7,48.3,29.93,SE,125,12.7,12.7,42,0.00,,SKC,0.00,WeatherDisplay:10.37,2013-09-21 18:25:00,
2013-09-21 13:30:00,72.6,50.0,29.93,South,184,9.5,9.5,45,0.00,,SKC,0.00,WeatherDisplay:10.37,2013-09-21 18:30:00,
2013-09-21 13:35:00,72.7,48.9,29.93,South,174,7.4,7.4,43,0.00,,SKC,0.00,WeatherDisplay:10.37,2013-09-21 18:35:00,
2013-09-21 13:40:00,72.9,49.7,29.93,SE,145,8.5,8.5,44,0.00,,SKC,0.00,WeatherDisplay:10.37,2013-09-21 18:40:00,
2013-09-21 13:45:00,73.5,49.6,29.92,East,100,8.1,8.1,43,0.00,,SKC,0.00,WeatherDisplay:10.37,2013-09-21 18:45:00,
2013-09-21 13:50:00,73.6,50.9,29.92,SSW,194,7.4,7.4,45,0.00,,SKC,0.00,WeatherDisplay:10.37,2013-09-21 18:50:00,
2013-09-21 13:55:00,73.6,49.7,29.92,SSW,195,7.4,7.4,43,0.00,,SKC,0.00,WeatherDisplay:10.37,2013-09-21 18:55:00,
2013-09-21 14:00:00,74.2,50.9,29.92,South,174,7.4,7.4,44,0.00,,SKC,0.00,WeatherDisplay:10.37,2013-09-21 19:00:00,
2013-09-21 14:05:00,74.5,50.5,29.91,SE,139,10.4,10.4,43,0.00,,SKC,0.00,WeatherDisplay:10.37,2013-09-21 19:05:00,
2013-09-21 14:10:00,74.7,50.7,29.91,SE,145,8.5,8.5,43,0.00,,SKC,0.00,WeatherDisplay:10.37,2013-09-21 19:10:00,
2013-09-21 14:15:00,74.8,51.4,29.91,SSE,158,8.5,8.5,44,0.00,,SKC,0.00,WeatherDisplay:10.37,2013-09-21 19:15:00,
2013-09-21 14:20:00,74.5,49.9,29.91,SSE,159,10.6,10.6,42,0.00,,SKC,0.00,WeatherDisplay:10.37,2013-09-21 19:20:00,
2013-09-21 14:25:00,74.9,50.9,29.90,SSE,155,9.5,9.5,43,0.00,,SKC,0.00,WeatherDisplay:10.37,2013-09-21 19:25:00,
2013-09-21 14:30:00,74.9,50.3,29.90,SE,138,12.7,12.7,42,0.00,,SKC,0.00,WeatherDisplay:10.37,2013-09-21 19:30:00,
2013-09-21 14:35:00,74.9,51.5,29.90,South,183,10.4,10.4,44,0.00,,SKC,0.00,WeatherDisplay:10.37,2013-09-21 19:35:00,
2013-09-21 14:40:00,75.2,51.8,29.90,SSW,210,7.4,7.4,44,0.00,,SKC,0.00,WeatherDisplay:10.37,2013-09-21 19:40:00,
2013-09-21 14:45:00,75.3,52.5,29.89,SSE,157,9.5,9.5,45,0.00,,SKC,0.00,WeatherDisplay:10.37,2013-09-21 19:45:00,
2013-09-21 14:50:00,75.5,51.4,29.89,South,184,9.2,9.2,43,0.00,,SKC,0.00,WeatherDisplay:10.37,2013-09-21 19:50:00,
2013-09-21 14:55:00,75.3,51.3,29.89,SSE,162,9.5,9.5,43,0.00,,SKC,0.00,WeatherDisplay:10.37,2013-09-21 19:55:00,
2013-09-21 15:01:00,75.4,52.6,29.89,SSW,193,6.9,6.9,45,0.00,,SKC,0.00,WeatherDisplay:10.37,2013-09-21 20:01:00,
2013-09-21 15:06:00,75.4,53.8,29.89,SSW,209,11.7,11.7,47,0.00,,SKC,0.00,WeatherDisplay:10.37,2013-09-21 20:06:00,
2013-09-21 15:11:00,75.5,52.7,29.88,SSW,194,9.2,9.2,45,0.00,,SKC,0.00,WeatherDisplay:10.37,2013-09-21 20:11:00,
2013-09-21 15:16:00,75.8,52.3,29.88,South,183,7.4,7.4,44,0.00,,SKC,0.00,WeatherDisplay:10.37,2013-09-21 20:16:00,
2013-09-21 15:21:00,75.8,52.3,29.88,SSW,202,4.2,4.2,44,0.00,,SKC,0.00,WeatherDisplay:10.37,2013-09-21 20:21:00,
2013-09-21 15:26:00,76.0,51.2,29.87,South,169,9.2,9.2,42,0.00,,SKC,0.00,WeatherDisplay:10.37,2013-09-21 20:26:00,
2013-09-21 15:31:00,76.1,52.0,29.87,SSE,157,10.6,10.6,43,0.00,,SKC,0.00,WeatherDisplay:10.37,2013-09-21 20:31:00,
2013-09-21 15:36:00,76.1,52.6,29.87,South,172,10.4,10.4,44,0.00,,SKC,0.00,WeatherDisplay:10.37,2013-09-21 20:36:00,
2013-09-21 15:41:00,76.3,52.8,29.87,SSW,209,7.4,7.4,44,0.00,,SKC,0.00,WeatherDisplay:10.37,2013-09-21 20:41:00,
2013-09-21 15:46:00,76.6,51.8,29.87,South,190,8.1,8.1,42,0.00,,SKC,0.00,WeatherDisplay:10.37,2013-09-21 20:46:00,
2013-09-21 15:51:00,76.6,52.4,29.86,SSW,193,6.9,6.9,43,0.00,,SKC,0.00,WeatherDisplay:10.37,2013-09-21 20:51:00,
2013-09-21 15:56:00,76.6,52.4,29.86,WSW,257,12.7,12.7,43,0.00,,SKC,0.00,WeatherDisplay:10.37,2013-09-21 20:56:00,
2013-09-21 16:01:00,76.7,52.5,29.86,SSE,152,5.8,5.8,43,0.00,,SKC,0.00,WeatherDisplay:10.37,2013-09-21 21:01:00,
2013-09-21 16:06:00,77.1,52.2,29.86,SSW,200,9.2,9.2,42,0.00,,SKC,0.00,WeatherDisplay:10.37,2013-09-21 21:06:00,
2013-09-21 16:11:00,77.1,52.2,29.85,SSW,207,5.8,5.8,42,0.00,,SKC,0.00,WeatherDisplay:10.37,2013-09-21 21:11:00,
2013-09-21 16:16:00,77.2,53.0,29.85,SSW,209,8.1,8.1,43,0.00,,SKC,0.00,WeatherDisplay:10.37,2013-09-21 21:16:00,
2013-09-21 16:21:00,77.3,53.1,29.85,SSW,209,10.6,10.6,43,0.00,,SKC,0.00,WeatherDisplay:10.37,2013-09-21 21:21:00,
2013-09-21 16:26:00,77.3,53.7,29.85,SSE,150,4.6,4.6,44,0.00,,SKC,0.00,WeatherDisplay:10.37,2013-09-21 21:26:00,
2013-09-21 16:31:00,77.5,53.2,29.85,SSE,160,11.7,11.7,43,0.00,,SKC,0.00,WeatherDisplay:10.37,2013-09-21 21:31:00,
2013-09-21 16:36:00,77.5,52.6,29.85,SW,217,11.7,11.7,42,0.00,,SKC,0.00,WeatherDisplay:10.37,2013-09-21 21:36:00,
2013-09-21 16:41:00,77.7,53.4,29.84,SE,129,7.4,7.4,43,0.00,,SKC,0.00,WeatherDisplay:10.37,2013-09-21 21:41:00,
2013-09-21 16:46:00,78.0,53.0,29.84,SW,233,6.9,6.9,42,0.00,,SKC,0.00,WeatherDisplay:10.37,2013-09-21 21:46:00,
2013-09-21 16:51:00,77.9,52.3,29.84,SE,131,8.1,8.1,41,0.00,,SKC,0.00,WeatherDisplay:10.37,2013-09-21 21:51:00,
2013-09-21 16:56:00,77.9,53.0,29.84,South,174,3.2,3.2,42,0.00,,SKC,0.00,WeatherDisplay:10.37,2013-09-21 21:56:00,
2013-09-21 17:01:00,78.1,53.1,29.84,ESE,122,10.4,10.4,42,0.00,,SKC,0.00,WeatherDisplay:10.37,2013-09-21 22:01:00,
2013-09-21 17:06:00,78.0,53.0,29.83,SSE,162,6.9,6.9,42,0.00,,SKC,0.00,WeatherDisplay:10.37,2013-09-21 22:06:00,
2013-09-21 17:11:00,78.0,53.0,29.83,South,188,9.2,9.2,42,0.00,,SKC,0.00,WeatherDisplay:10.37,2013-09-21 22:11:00,
2013-09-21 17:16:00,77.9,53.6,29.83,SSW,195,5.8,5.8,43,0.00,,SKC,0.00,WeatherDisplay:10.37,2013-09-21 22:16:00,
2013-09-21 17:21:00,78.1,53.1,29.83,SSE,153,6.9,6.9,42,0.00,,SKC,0.00,WeatherDisplay:10.37,2013-09-21 22:21:00,
2013-09-21 17:26:00,78.1,52.5,29.83,SSE,155,8.5,8.5,41,0.00,,SKC,0.00,WeatherDisplay:10.37,2013-09-21 22:26:00,
2013-09-21 17:31:00,78.0,53.7,29.83,SE,132,7.4,7.4,43,0.00,,SKC,0.00,WeatherDisplay:10.37,2013-09-21 22:31:00,
2013-09-21 17:36:00,78.0,53.7,29.83,SSE,167,7.4,7.4,43,0.00,,SKC,0.00,WeatherDisplay:10.37,2013-09-21 22:36:00,
2013-09-21 17:41:00,77.9,53.0,29.82,SE,126,8.5,8.5,42,0.00,,SKC,0.00,WeatherDisplay:10.37,2013-09-21 22:41:00,
2013-09-21 17:46:00,77.9,53.0,29.82,SSE,166,7.4,7.4,42,0.00,,SKC,0.00,WeatherDisplay:10.37,2013-09-21 22:46:00,
2013-09-21 17:51:00,77.6,52.7,29.82,SSE,161,9.5,9.5,42,0.00,,SKC,0.00,WeatherDisplay:10.37,2013-09-21 22:51:00,
2013-09-21 17:56:00,77.4,53.1,29.82,SE,130,9.5,9.5,43,0.00,,SKC,0.00,WeatherDisplay:10.37,2013-09-21 22:56:00,
2013-09-21 18:01:00,77.1,52.9,29.82,ESE,111,9.5,9.5,43,0.00,,SKC,0.00,WeatherDisplay:10.37,2013-09-21 23:01:00,
2013-09-21 18:06:00,76.9,53.3,29.82,ESE,118,7.4,7.4,44,0.00,,SKC,0.00,WeatherDisplay:10.37,2013-09-21 23:06:00,
2013-09-21 18:11:00,76.7,53.8,29.82,ESE,111,8.5,8.5,45,0.00,,SKC,0.00,WeatherDisplay:10.37,2013-09-21 23:11:00,
2013-09-21 18:16:00,76.5,53.6,29.82,SE,136,8.5,8.5,45,0.00,,SKC,0.00,WeatherDisplay:10.37,2013-09-21 23:16:00,
2013-09-21 18:21:00,76.2,53.9,29.82,East,100,8.5,8.5,46,0.00,,SKC,0.00,WeatherDisplay:10.37,2013-09-21 23:21:00,
2013-09-21 18:26:00,75.8,53.5,29.82,SSE,162,8.5,8.5,46,0.00,,SKC,0.00,WeatherDisplay:10.37,2013-09-21 23:26:00,
2013-09-21 18:31:00,75.5,53.9,29.82,East,98,6.4,6.4,47,0.00,,SKC,0.00,WeatherDisplay:10.37,2013-09-21 23:31:00,
2013-09-21 18:36:00,75.3,53.7,29.82,ESE,120,4.6,4.6,47,0.00,,SKC,0.00,WeatherDisplay:10.37,2013-09-21 23:36:00,
2013-09-21 18:41:00,75.0,54.0,29.82,ESE,123,7.4,7.4,48,0.00,,SKC,0.00,WeatherDisplay:10.37,2013-09-21 23:41:00,
2013-09-21 18:46:00,74.6,54.2,29.82,ESE,122,5.8,5.8,49,0.00,,SKC,0.00,WeatherDisplay:10.37,2013-09-21 23:46:00,
2013-09-21 18:51:00,74.2,54.4,29.81,ESE,110,4.6,4.6,50,0.00,,SKC,0.00,WeatherDisplay:10.37,2013-09-21 23:51:00,
2013-09-21 18:56:00,73.7,53.9,29.82,SE,133,6.9,6.9,50,0.00,,SKC,0.00,WeatherDisplay:10.37,2013-09-21 23:56:00,
2013-09-21 19:01:00,73.1,54.4,29.82,ESE,123,3.5,3.5,52,0.00,,SKC,0.00,WeatherDisplay:10.37,2013-09-22 00:01:00,
2013-09-21 19:06:00,72.3,54.7,29.81,East,87,3.5,3.5,54,0.00,,SKC,0.00,WeatherDisplay:10.37,2013-09-22 00:06:00,
2013-09-21 19:11:00,71.6,54.1,29.81,SE,128,4.6,4.6,54,0.00,,SKC,0.00,WeatherDisplay:10.37,2013-09-22 00:11:00,
2013-09-21 19:16:00,71.1,54.1,29.81,ESE,113,4.6,4.6,55,0.00,,SKC,0.00,WeatherDisplay:10.37,2013-09-22 00:16:00,
2013-09-21 19:21:00,70.5,54.0,29.81,ESE,111,3.5,3.5,56,0.00,,SKC,0.00,WeatherDisplay:10.37,2013-09-22 00:21:00,
2013-09-21 19:26:00,69.9,54.0,29.81,SE,130,5.8,5.8,57,0.00,,SKC,0.00,WeatherDisplay:10.37,2013-09-22 00:26:00,
2013-09-21 19:31:00,69.6,54.2,29.81,ESE,111,3.5,3.5,58,0.00,,SKC,0.00,WeatherDisplay:10.37,2013-09-22 00:31:00,
2013-09-21 19:36:00,69.0,54.1,29.81,SE,125,5.8,5.8,59,0.00,,SKC,0.00,WeatherDisplay:10.37,2013-09-22 00:36:00,
2013-09-21 19:41:00,68.5,54.1,29.81,ESE,117,5.8,5.8,60,0.00,,SKC,0.00,WeatherDisplay:10.37,2013-09-22 00:41:00,
2013-09-21 19:46:00,68.3,53.9,29.81,East,93,5.8,5.8,60,0.00,,SKC,0.00,WeatherDisplay:10.37,2013-09-22 00:46:00,
2013-09-21 19:51:00,67.8,53.9,29.81,ESE,108,5.8,5.8,61,0.00,,SKC,0.00,WeatherDisplay:10.37,2013-09-22 00:51:00,
2013-09-21 19:56:00,67.4,53.9,29.81,East,99,5.3,5.3,62,0.00,,SKC,0.00,WeatherDisplay:10.37,2013-09-22 00:56:00,
2013-09-21 20:01:00,67.1,53.6,29.81,East,101,8.5,8.5,62,0.00,,SKC,0.00,WeatherDisplay:10.37,2013-09-22 01:01:00,
2013-09-21 20:06:00,66.8,53.8,29.81,East,83,6.4,6.4,63,0.00,,SKC,0.00,WeatherDisplay:10.37,2013-09-22 01:06:00,
2013-09-21 20:11:00,66.5,53.9,29.82,East,101,6.4,6.4,64,0.00,,SKC,0.00,WeatherDisplay:10.37,2013-09-22 01:11:00,
2013-09-21 20:16:00,66.3,53.8,29.82,East,97,9.5,9.5,64,0.00,,SKC,0.00,WeatherDisplay:10.37,2013-09-22 01:16:00,
2013-09-21 20:21:00,66.1,54.0,29.82,ESE,103,6.9,6.9,65,0.00,,SKC,0.00,WeatherDisplay:10.37,2013-09-22 01:21:00,
2013-09-21 20:26:00,66.0,53.5,29.82,ESE,108,7.4,7.4,64,0.00,,SKC,0.00,WeatherDisplay:10.37,2013-09-22 01:26:00,
2013-09-21 20:31:00,66.0,53.5,29.82,East,101,7.4,7.4,64,0.00,,SKC,0.00,WeatherDisplay:10.37,2013-09-22 01:31:00,
2013-09-21 20:37:00,66.0,53.5,29.82,SE,128,7.4,7.4,64,0.00,,SKC,0.00,WeatherDisplay:10.37,2013-09-22 01:37:00,
2013-09-21 20:42:00,66.0,53.5,29.82,ESE,122,8.1,8.1,64,0.00,,SKC,0.00,WeatherDisplay:10.37,2013-09-22 01:42:00,
2013-09-21 20:47:00,65.9,53.8,29.82,SE,141,6.9,6.9,65,0.00,,SKC,0.00,WeatherDisplay:10.37,2013-09-22 01:47:00,
2013-09-21 20:52:00,65.6,53.5,29.82,SE,130,7.4,7.4,65,0.00,,SKC,0.00,WeatherDisplay:10.37,2013-09-22 01:52:00,
2013-09-21 20:57:00,65.4,53.7,29.82,ESE,119,6.9,6.9,66,0.00,,SKC,0.00,WeatherDisplay:10.37,2013-09-22 01:57:00,
2013-09-21 21:02:00,65.2,54.0,29.82,ESE,123,6.9,6.9,67,0.00,,SKC,0.00,WeatherDisplay:10.37,2013-09-22 02:02:00,
2013-09-21 21:07:00,65.0,53.8,29.82,SE,129,7.4,7.4,67,0.00,,SKC,0.00,WeatherDisplay:10.37,2013-09-22 02:07:00,
2013-09-21 21:12:00,64.8,54.0,29.82,SE,134,7.4,7.4,68,0.00,,SKC,0.00,WeatherDisplay:10.37,2013-09-22 02:12:00,
2013-09-21 21:17:00,64.5,54.1,29.82,ESE,120,5.8,5.8,69,0.00,,SKC,0.00,WeatherDisplay:10.37,2013-09-22 02:17:00,
2013-09-21 21:22:00,64.3,53.9,29.83,ESE,117,6.9,6.9,69,0.00,,SKC,0.00,WeatherDisplay:10.37,2013-09-22 02:22:00,
2013-09-21 21:27:00,64.1,53.7,29.83,ESE,117,8.5,8.5,69,0.00,,SKC,0.00,WeatherDisplay:10.37,2013-09-22 02:27:00,
2013-09-21 21:32:00,64.0,54.0,29.83,SE,127,6.4,6.4,70,0.00,,SKC,0.00,WeatherDisplay:10.37,2013-09-22 02:32:00,
2013-09-21 21:37:00,63.9,53.9,29.83,SE,133,6.9,6.9,70,0.00,,SKC,0.00,WeatherDisplay:10.37,2013-09-22 02:37:00,
2013-09-21 21:42:00,63.6,54.0,29.83,SE,146,6.9,6.9,71,0.00,,SKC,0.00,WeatherDisplay:10.37,2013-09-22 02:42:00,
2013-09-21 21:47:00,63.4,53.8,29.83,ESE,122,6.9,6.9,71,0.00,,SKC,0.00,WeatherDisplay:10.37,2013-09-22 02:47:00,
2013-09-21 21:52:00,63.2,54.0,29.83,SSE,160,6.9,6.9,72,0.00,,SKC,0.00,WeatherDisplay:10.37,2013-09-22 02:52:00,
2013-09-21 21:57:00,63.0,53.8,29.83,ESE,117,8.5,8.5,72,0.00,,SKC,0.00,WeatherDisplay:10.37,2013-09-22 02:57:00,
2013-09-21 22:02:00,62.9,53.7,29.83,SE,140,5.8,5.8,72,0.00,,SKC,0.00,WeatherDisplay:10.37,2013-09-22 03:02:00,
2013-09-21 22:07:00,62.7,53.9,29.83,SE,136,4.6,4.6,73,0.00,,SKC,0.00,WeatherDisplay:10.37,2013-09-22 03:07:00,
2013-09-21 22:12:00,62.5,53.7,29.83,ESE,120,5.8,5.8,73,0.00,,SKC,0.00,WeatherDisplay:10.37,2013-09-22 03:12:00,
2013-09-21 22:17:00,62.3,53.9,29.83,ESE,123,3.5,3.5,74,0.00,,SKC,0.00,WeatherDisplay:10.37,2013-09-22 03:17:00,
2013-09-21 22:22:00,62.2,53.8,29.83,ESE,105,6.9,6.9,74,0.00,,SKC,0.00,WeatherDisplay:10.37,2013-09-22 03:22:00,
2013-09-21 22:27:00,62.0,54.0,29.83,SE,143,5.3,5.3,75,0.00,,SKC,0.00,WeatherDisplay:10.37,2013-09-22 03:27:00,
2013-09-21 22:32:00,61.9,53.9,29.83,ESE,118,5.8,5.8,75,0.00,,SKC,0.00,WeatherDisplay:10.37,2013-09-22 03:32:00,
2013-09-21 22:37:00,61.7,53.7,29.83,SE,137,4.6,4.6,75,0.00,,SKC,0.00,WeatherDisplay:10.37,2013-09-22 03:37:00,
2013-09-21 22:42:00,61.5,53.9,29.83,ESE,115,5.8,5.8,76,0.00,,SKC,0.00,WeatherDisplay:10.37,2013-09-22 03:42:00,
2013-09-21 22:47:00,61.3,53.7,29.83,ESE,120,4.6,4.6,76,0.00,,SKC,0.00,WeatherDisplay:10.37,2013-09-22 03:47:00,
2013-09-21 22:52:00,61.1,53.5,29.83,East,90,5.8,5.8,76,0.00,,SKC,0.00,WeatherDisplay:10.37,2013-09-22 03:52:00,
2013-09-21 22:57:00,61.1,53.5,29.84,ESE,120,6.9,6.9,76,0.00,,SKC,0.00,WeatherDisplay:10.37,2013-09-22 03:57:00,
2013-09-21 23:01:00,61.1,53.5,29.84,East,99,5.8,5.8,76,0.00,,SKC,0.00,WeatherDisplay:10.37,2013-09-22 04:01:00,
2013-09-21 23:02:00,61.1,53.5,29.84,East,99,5.8,5.8,76,0.00,,SKC,0.00,WeatherDisplay:10.37,2013-09-22 04:02:00,
2013-09-21 23:07:00,61.0,53.7,29.84,SE,141,6.9,6.9,77,0.00,,SKC,0.00,WeatherDisplay:10.37,2013-09-22 04:07:00,
2013-09-21 23:12:00,60.9,53.6,29.84,East,99,5.8,5.8,77,0.00,,SKC,0.00,WeatherDisplay:10.37,2013-09-22 04:12:00,
2013-09-21 23:17:00,60.9,53.6,29.84,ESE,122,5.3,5.3,77,0.00,,SKC,0.00,WeatherDisplay:10.37,2013-09-22 04:17:00,
2013-09-21 23:22:00,60.8,53.5,29.84,ESE,122,6.9,6.9,77,0.00,,SKC,0.00,WeatherDisplay:10.37,2013-09-22 04:22:00,
2013-09-21 23:27:00,60.8,53.5,29.84,SE,138,5.8,5.8,77,0.00,,SKC,0.00,WeatherDisplay:10.37,2013-09-22 04:27:00,
2013-09-21 23:32:00,60.7,53.4,29.84,SE,127,4.6,4.6,77,0.00,,SKC,0.00,WeatherDisplay:10.37,2013-09-22 04:32:00,
2013-09-21 23:37:00,60.5,53.6,29.84,SSE,147,5.3,5.3,78,0.00,,SKC,0.00,WeatherDisplay:10.37,2013-09-22 04:37:00,
2013-09-21 23:42:00,60.3,53.4,29.84,SE,140,4.6,4.6,78,0.00,,SKC,0.00,WeatherDisplay:10.37,2013-09-22 04:42:00,
2013-09-21 23:47:00,60.2,53.3,29.84,SSE,166,6.9,6.9,78,0.00,,SKC,0.00,WeatherDisplay:10.37,2013-09-22 04:47:00,
2013-09-21 23:52:00,60.0,53.5,29.84,SE,137,3.5,3.5,79,0.00,,SKC,0.00,WeatherDisplay:10.37,2013-09-22 04:52:00,
2013-09-21 23:57:00,59.7,53.2,29.84,SE,142,3.5,3.5,79,0.00,,SKC,0.00,WeatherDisplay:10.37,2013-09-22 04:57:00,